Fairbanks Ft. Wainwright, AK

8:43 AM AKDT on April 29, 2017 (GMT -0800)
Ladd Army Air Field

Weather History for PAFB - December, 2013

Change the Weather History Date:

Monday, December 2, 2013

  Actual Average Record
Temperature  
Mean Temperature -17 °F -  
Max Temperature -8 °F 1 °F 26 °F (2004)
Min Temperature -26 °F -6 °F -41 °F (2003)
Degree Days  
Heating Degree Days 82    
Moisture  
Dew Point -26 °F    
Average Humidity 77    
Maximum Humidity 84    
Minimum Humidity 69    
Precipitation  
Precipitation 0.00 in - - ()
Snow  
Snow 0.00 in - - ()
Snow Depth 13.00 in    
Sea Level Pressure  
Sea Level Pressure 30.79 in    
Wind  
Wind Speed 0 mph (ENE)    
Max Wind Speed 4 mph    
Max Gust Speed -    
Visibility 10 miles    
Events      
Averages and records for this station are not official NWS values.
T = Trace of Precipitation, MM = Missing Value Source: NWS Daily Summary

Daily Weather History Graph

Daily Weather History Graph

Search for Another Location

Airport or City:

Trip Planner

Search our weather history database for the weather conditions in past years. The results will help you decide how hot, cold, wet, or windy it might be!

Date:

Astronomy

Dec. 02, 2013 Rise Set
Actual Time 10:22 AM AKST 2:57 PM AKST
Civil Twilight 9:06 AM AKST 4:13 PM AKST
Nautical Twilight 7:58 AM AKST 5:21 PM AKST
Astronomical Twilight 6:57 AM AKST 6:21 PM AKST
Moon 9:38 AM AKST (12/2) 3:27 PM AKST (12/2)
Length of Visible Light 7h 06m
Length of Day
4h 34m
Waning Crescent, 0% of the Moon is Illuminated
Dec 2
Waning Crescent
Dec 2
New
Dec 9
First Quarter
Dec 17
Full
Dec 25
Last Quarter

Hourly Weather History & Observations

Time (AKST) Temp. Windchill Dew Point Humidity Pressure Visibility Wind Dir Wind Speed Gust Speed Precip Events Conditions
12:56 AM -25.1 °F - -31.0 °F 74% 30.83 in 10.0 mi Calm Calm - N/A   Clear
1:56 AM -26.0 °F - -32.1 °F 73% 30.83 in 10.0 mi Calm Calm - N/A   Clear
2:56 AM -26.0 °F - -32.1 °F 73% 30.81 in 10.0 mi Calm Calm - N/A   Clear
3:56 AM -26.0 °F - -31.0 °F 77% 30.81 in 10.0 mi Calm Calm - N/A   Clear
4:56 AM -25.1 °F - -29.9 °F 78% 30.81 in 10.0 mi Calm Calm - N/A   Clear
5:56 AM -25.1 °F - -29.9 °F 78% 30.80 in 10.0 mi Calm Calm - N/A   Clear
6:31 AM -25.6 °F - -31.0 °F 76% 30.74 in 10.0 mi Calm Calm - N/A   Partly Cloudy
6:55 AM -25.6 °F - -31.0 °F 76% 30.81 in 10.0 mi Calm Calm - N/A   Partly Cloudy
7:55 AM -25.6 °F - -31.0 °F 76% 30.80 in 10.0 mi Calm Calm - N/A   Partly Cloudy
8:55 AM -25.6 °F - -31.0 °F 76% 30.80 in 10.0 mi Calm Calm - N/A   Partly Cloudy
9:55 AM -25.6 °F - -31.0 °F 76% 30.80 in 13.0 mi Calm Calm - N/A   Partly Cloudy
10:55 AM -25.6 °F - -32.8 °F 69% 30.79 in 13.0 mi Calm Calm - N/A   Scattered Clouds
11:55 AM -25.6 °F - -31.0 °F 76% 30.80 in 13.0 mi Calm Calm - N/A   Scattered Clouds
12:55 PM -23.8 °F - -27.4 °F 83% 30.79 in 13.0 mi Calm Calm - N/A   Scattered Clouds
1:55 PM -20.2 °F - -25.6 °F 76% 30.78 in 13.0 mi Calm Calm - N/A   Scattered Clouds
2:55 PM -20.2 °F - -25.6 °F 76% 30.76 in 13.0 mi Calm Calm - N/A   Mostly Cloudy
3:55 PM -20.2 °F - -25.6 °F 76% 30.76 in 10.0 mi Calm Calm - N/A   Mostly Cloudy
4:55 PM -18.4 °F - -23.8 °F 76% 30.76 in 10.0 mi Calm Calm - N/A   Mostly Cloudy
5:55 PM -18.4 °F - -23.8 °F 76% 30.76 in 10.0 mi Calm Calm - N/A   Mostly Cloudy
6:55 PM -14.8 °F - -20.2 °F 77% 30.76 in 7.0 mi Calm Calm - N/A   Mostly Cloudy
7:55 PM -14.8 °F - -18.4 °F 84% 30.76 in 7.0 mi Calm Calm - N/A   Mostly Cloudy
8:55 PM -13.0 °F - -16.6 °F 84% 30.77 in 7.0 mi Calm Calm - N/A   Overcast
10:56 PM -8.0 °F - -11.9 °F 83% 30.78 in 10.0 mi Calm Calm - N/A   Clear
11:56 PM -8.0 °F -16.9 °F -11.9 °F 83% 30.78 in 10.0 mi ENE 3.5 mph - N/A   Clear